Torna al catalogo

BEIDOU 3M2

AttivoNavigazioneMEO
NORAD 43002·PAYLOAD·🇨🇳 China

Lanciato Nov 5, 2017 da Xichang Satellite Launch Center

Loading…

Prossimi Passaggi (prossime 24 ore)

TLE

AggiornatoSource: CelesTrak SupGP

Epoca: Sep 14, 2026, 00:00 UTC

1 43002C 17069B   26257.00000000  .00000000  00000+0  00000+0 0  2579
2 43002  56.7729  60.1998 0005801   1.3234 220.1882  1.86230915    16

Traccia BEIDOU 3M2 in tempo reale con AllMySat

Download on the App Store